User: anonymous
Location: Melbourne
(37.8170°S, 144.9670°E)
Time: 05:34:25
(UTC+10:00)
Language:

Cosmos 962 Rocket - Orbit

View from above orbital plane
View from above orbital plane
View from above satellite
View from above satellite

Ground track
Ground track

The orbit data is extracted from the following two-line orbital elements,

1 10461U 77107B   14259.44420191  .00000019  00000-0  29661-5 0  6367
2 10461 082.9499 039.2614 0034568 080.9376 311.1097 13.76698462852525
Epoch (UTC): 16 September 2014 10:39:39
Eccentricity: 0.0034568
inclination: 82.9499°
perigee height: 950 km
apogee height: 1001 km
right ascension of ascending node: 39.2614°
argument of perigee: 80.9376°
revolutions per day: 13.76698462
mean anomaly at epoch: 311.1097°
orbit number at epoch: 85252

The dashed part of the orbit path shows where the satellite is in the earth's shadow,  

DLR